Stations météo

réclame
Mon MeteoGroup
Tarifa, Espagne (8458): Température de l'air & dewpoint: 19.04.2018 14:00:00 - 25.04.2018 14:00:00 (CEST)Tarifa, Espagne (8458): Quantités de précipitations: 19.04.2018 14:00:00 - 25.04.2018 14:00:00 (CEST)
Date & Time tt [°C] td [°C] rr [mm]
25.04.2018 14:00:00 - - -
25.04.2018 13:00:00 16,9 15,8 0,1
25.04.2018 12:00:00 17,2 15,7 0,0
25.04.2018 11:00:00 17,1 16,1 0,0
25.04.2018 10:00:00 16,7 15,7 0,0
25.04.2018 09:00:00 16,6 16,5 0,0
25.04.2018 08:00:00 15,9 15,7 -
25.04.2018 07:00:00 15,4 15,3 0,0
25.04.2018 06:00:00 15,5 15,2 0,0
25.04.2018 05:00:00 16,9 16,0 0,5
25.04.2018 04:00:00 17,1 15,6 0,0
25.04.2018 03:00:00 18,6 14,5 0,0
25.04.2018 02:00:00 18,1 14,4 -
25.04.2018 01:00:00 18,5 14,6 0,0
25.04.2018 00:00:00 18,3 14,8 0,0
24.04.2018 23:00:00 18,0 14,1 0,0
24.04.2018 22:00:00 18,7 14,6 0,0
24.04.2018 21:00:00 18,6 14,0 0,0
24.04.2018 20:00:00 19,5 14,1 -
24.04.2018 19:00:00 20,6 14,5 0,0
24.04.2018 18:00:00 21,4 14,3 0,0
24.04.2018 17:00:00 22,2 14,8 0,0
24.04.2018 16:00:00 21,6 14,5 0,0
24.04.2018 15:00:00 21,6 16,3 0,0
24.04.2018 14:00:00 21,4 16,4 -
24.04.2018 13:00:00 20,8 15,8 0,0
24.04.2018 12:00:00 20,7 15,9 0,0
24.04.2018 11:00:00 20,2 15,6 0,0
24.04.2018 10:00:00 19,3 15,3 0,0
24.04.2018 09:00:00 18,8 15,7 0,0
24.04.2018 08:00:00 16,2 15,3 -
24.04.2018 07:00:00 15,9 15,3 0,0
24.04.2018 06:00:00 16,8 15,8 0,0
24.04.2018 05:00:00 18,7 14,6 0,0
24.04.2018 04:00:00 19,0 15,1 0,0
24.04.2018 03:00:00 18,7 15,3 0,0
24.04.2018 02:00:00 17,8 15,3 -
24.04.2018 01:00:00 18,2 15,3 0,0
24.04.2018 00:00:00 18,5 15,2 0,0
23.04.2018 23:00:00 18,8 14,9 0,0
23.04.2018 22:00:00 18,5 15,2 0,0
23.04.2018 21:00:00 18,9 14,8 0,0
23.04.2018 20:00:00 19,1 15,0 -
23.04.2018 19:00:00 19,5 15,2 0,0
23.04.2018 18:00:00 19,8 15,4 0,0
23.04.2018 17:00:00 19,6 15,6 0,0
23.04.2018 16:00:00 20,1 15,1 0,0
23.04.2018 15:00:00 19,9 17,7 0,0
23.04.2018 14:00:00 19,8 17,4 -
23.04.2018 13:00:00 19,6 16,6 0,0
23.04.2018 12:00:00 19,4 17,2 0,0
23.04.2018 11:00:00 19,0 17,5 0,0
23.04.2018 10:00:00 18,9 17,4 0,0
23.04.2018 09:00:00 17,4 16,9 0,0
23.04.2018 08:00:00 16,6 16,3 -
23.04.2018 07:00:00 16,1 16,0 0,0
23.04.2018 06:00:00 15,5 15,2 0,0
23.04.2018 05:00:00 16,3 16,1 0,0
23.04.2018 04:00:00 16,5 16,3 0,0
23.04.2018 03:00:00 16,7 16,6 0,0
23.04.2018 02:00:00 17,0 16,6 -
23.04.2018 01:00:00 17,5 16,7 0,6
23.04.2018 00:00:00 17,6 16,6 0,7
22.04.2018 23:00:00 18,2 15,6 0,0
22.04.2018 22:00:00 16,8 15,8 0,0
22.04.2018 21:00:00 17,2 15,7 0,0
22.04.2018 20:00:00 17,9 15,9 -
22.04.2018 19:00:00 18,7 16,3 0,0
22.04.2018 18:00:00 19,1 16,9 0,0
22.04.2018 17:00:00 19,0 16,8 0,0
22.04.2018 16:00:00 19,0 17,3 0,0
22.04.2018 15:00:00 18,6 17,5 0,0
22.04.2018 14:00:00 18,4 17,4 -
22.04.2018 13:00:00 18,8 18,3 0,0
22.04.2018 12:00:00 18,2 17,7 0,0
22.04.2018 11:00:00 17,9 17,1 0,0
22.04.2018 10:00:00 17,5 17,1 0,0
22.04.2018 09:00:00 17,1 16,6 0,0
22.04.2018 08:00:00 17,0 16,4 -
22.04.2018 07:00:00 17,0 16,2 0,0
22.04.2018 06:00:00 17,0 16,4 0,0
22.04.2018 05:00:00 16,7 16,0 0,0
22.04.2018 04:00:00 17,0 16,4 0,0
22.04.2018 03:00:00 16,8 16,3 0,0
22.04.2018 02:00:00 16,9 16,4 -
22.04.2018 01:00:00 17,0 16,6 0,0
22.04.2018 00:00:00 16,7 16,2 0,7
21.04.2018 23:00:00 17,2 15,9 0,0
21.04.2018 22:00:00 17,4 16,0 0,0
21.04.2018 21:00:00 17,3 16,6 0,0
21.04.2018 20:00:00 16,7 16,2 -
21.04.2018 19:00:00 16,9 16,4 0,0
21.04.2018 18:00:00 17,1 16,6 0,0
21.04.2018 17:00:00 17,6 17,1 0,0
21.04.2018 16:00:00 17,8 17,1 0,0
21.04.2018 15:00:00 16,9 16,7 0,0
21.04.2018 14:00:00 17,0 16,8 -
21.04.2018 13:00:00 16,9 16,7 0,0
21.04.2018 12:00:00 16,0 15,9 0,0
21.04.2018 11:00:00 16,6 16,1 0,0
21.04.2018 10:00:00 16,8 16,0 0,0
21.04.2018 09:00:00 16,9 16,0 0,1
21.04.2018 08:00:00 16,6 15,8 -
21.04.2018 07:00:00 16,8 15,3 0,0
21.04.2018 06:00:00 16,9 15,1 0,0
21.04.2018 05:00:00 16,9 15,6 0,0
21.04.2018 04:00:00 16,5 16,0 0,0
21.04.2018 03:00:00 16,4 16,2 0,0
21.04.2018 02:00:00 16,3 16,1 -
21.04.2018 01:00:00 16,4 16,2 0,0
21.04.2018 00:00:00 16,4 16,2 0,0
20.04.2018 23:00:00 16,3 16,0 0,0
20.04.2018 22:00:00 16,0 15,9 1,3
20.04.2018 21:00:00 16,5 16,0 0,0
20.04.2018 20:00:00 16,5 15,9 -
20.04.2018 19:00:00 16,8 16,0 0,0
20.04.2018 18:00:00 17,3 16,3 0,0
20.04.2018 17:00:00 17,4 16,0 0,0
20.04.2018 16:00:00 17,6 16,6 0,0
20.04.2018 15:00:00 17,1 17,0 0,0
20.04.2018 14:00:00 17,3 16,5 -
20.04.2018 13:00:00 16,9 16,6 0,0
20.04.2018 12:00:00 16,8 15,5 0,0
20.04.2018 11:00:00 16,7 14,9 0,0
20.04.2018 10:00:00 16,2 14,9 0,0
20.04.2018 09:00:00 15,8 14,5 0,0
20.04.2018 08:00:00 16,1 14,4 -
20.04.2018 07:00:00 16,2 14,9 0,0
20.04.2018 06:00:00 16,3 14,8 0,0
20.04.2018 05:00:00 16,2 15,1 0,0
20.04.2018 04:00:00 16,1 15,2 0,0
20.04.2018 03:00:00 16,0 15,3 0,0
20.04.2018 02:00:00 15,9 15,3 -
20.04.2018 01:00:00 16,0 15,7 0,0
20.04.2018 00:00:00 16,1 16,0 0,0
19.04.2018 23:00:00 16,3 16,0 0,0
19.04.2018 22:00:00 16,3 15,7 0,0
19.04.2018 21:00:00 16,7 16,2 0,0
19.04.2018 20:00:00 17,0 16,4 -
19.04.2018 19:00:00 17,3 16,3 0,0
19.04.2018 18:00:00 17,7 16,0 0,0
19.04.2018 17:00:00 18,4 16,9 0,0
19.04.2018 16:00:00 18,3 16,8 0,0
19.04.2018 15:00:00 18,4 16,7 0,0
19.04.2018 14:00:00 18,4 17,2 -

tt = Température de l'air
td = dewpoint
rr = Quantités de précipitations

stations d'obs. à proximité